Weather reports worldwide

Advertisment
Shoeburyness Landwick, United Kingdom (3693): temperature & dewpoint: 13.02.2020 11:00:00 - 19.02.2020 11:00:00 (GMT)Shoeburyness Landwick, United Kingdom (3693): temperature -20cm & temperature -100cm: 13.02.2020 11:00:00 - 19.02.2020 11:00:00 (GMT)Shoeburyness Landwick, United Kingdom (3693): wind speed & gusts: 13.02.2020 11:00:00 - 19.02.2020 11:00:00 (GMT)Shoeburyness Landwick, United Kingdom (3693): wind direction: 13.02.2020 11:00:00 - 19.02.2020 11:00:00 (GMT)Shoeburyness Landwick, United Kingdom (3693): reduced air pressure: 13.02.2020 11:00:00 - 19.02.2020 11:00:00 (GMT)Shoeburyness Landwick, United Kingdom (3693): visibility: 13.02.2020 11:00:00 - 19.02.2020 11:00:00 (GMT)Shoeburyness Landwick, United Kingdom (3693): sunshine duration: 13.02.2020 11:00:00 - 19.02.2020 11:00:00 (GMT)Shoeburyness Landwick, United Kingdom (3693): precipitation: 13.02.2020 11:00:00 - 19.02.2020 11:00:00 (GMT)
Date & Time tt [°C] td [°C] tt -20cm [°C] tt -100cm [°C] ff [km/h] ff [kn] fx [km/h] fx [kn] dd ppp [hPa] vv [km] sd [min] rr [mm]
19.02.2020 11:00:00 7,1 1,8 - - 22 12 - - W 1021,5 30 48 0,0
19.02.2020 10:00:00 6,1 1,6 - - 24 13 - - W 1021,4 23 60 0,0
19.02.2020 09:00:00 4,9 1,4 6,5 8,2 18 10 - - W 1021,1 35 60 0,0
19.02.2020 08:00:00 3,9 1,0 - - 18 10 - - W 1020,8 28 24 0,0
19.02.2020 07:00:00 3,2 0,6 - - 16 9 - - W 1020,2 29 0 0,0
19.02.2020 06:00:00 2,7 0,2 - - 15 8 - - W 1019,4 30 0 -
19.02.2020 05:00:00 3,1 0,0 - - 11 6 - - W 1018,6 35 0 -
19.02.2020 04:00:00 3,7 0,4 - - 15 8 - - W 1018,2 35 0 0,0
19.02.2020 03:00:00 4,0 0,7 - - 18 10 - - WNW 1017,4 40 0 0,0
19.02.2020 02:00:00 4,6 1,7 - - 18 10 - - W 1016,5 45 0 0,0
19.02.2020 01:00:00 4,7 2,5 - - 16 9 - - W 1016,0 50 0 0,0
19.02.2020 00:00:00 5,2 2,3 - - 18 10 - - W 1015,1 45 - 0,0
18.02.2020 23:00:00 5,9 2,8 - - 24 13 46 25 W 1014,2 50 0 0,0
18.02.2020 22:00:00 6,6 3,7 - - 29 16 46 25 W 1014,2 35 0 0,0
18.02.2020 21:00:00 7,4 4,1 - - 26 14 50 27 W 1013,8 40 0 0,0
18.02.2020 20:00:00 7,4 4,9 - - 28 15 48 26 W 1014,0 40 0 1,2
18.02.2020 19:00:00 9,0 5,1 - - 29 16 46 25 WSW 1014,3 21 0 0,0
18.02.2020 18:00:00 8,1 5,5 - - 26 14 - - SW 1015,2 22 0 0,0
18.02.2020 17:00:00 7,7 5,0 - - 18 10 52 28 WSW 1016,2 45 0 0,4
18.02.2020 16:00:00 9,2 4,9 - - 28 15 55 30 WSW 1016,5 28 0 0,0
18.02.2020 15:00:00 9,9 4,4 - - 29 16 54 29 WSW 1017,3 25 12 0,0
18.02.2020 14:00:00 10,2 3,3 - - 31 17 59 32 WSW 1018,1 30 18 0,0
18.02.2020 13:00:00 10,0 3,1 - - 29 16 48 26 WSW 1019,2 29 54 0,0
18.02.2020 12:00:00 9,6 3,1 - - 28 15 48 26 WSW 1019,7 28 48 0,0
18.02.2020 11:00:00 8,5 3,2 - - 22 12 - - WSW 1020,3 28 24 0,0
18.02.2020 10:00:00 7,4 2,8 - - 29 16 - - WSW 1020,4 35 60 -
18.02.2020 09:00:00 6,3 2,6 6,9 8,2 24 13 - - WSW 1020,4 30 60 0,0
18.02.2020 08:00:00 5,5 2,5 - - 22 12 - - WSW 1020,3 22 24 -
18.02.2020 07:00:00 5,0 2,1 - - 16 9 - - WSW 1019,6 24 0 0,0
18.02.2020 06:00:00 4,9 2,0 - - 16 9 - - WSW 1019,5 27 0 -
18.02.2020 05:00:00 5,1 1,9 - - 22 12 - - WSW 1019,5 21 0 0,0
18.02.2020 04:00:00 5,3 1,8 - - 24 13 - - WSW 1019,1 22 0 0,0
18.02.2020 03:00:00 5,4 2,0 - - 22 12 - - WSW 1018,8 21 0 0,0
18.02.2020 02:00:00 5,5 2,1 - - 22 12 - - WSW 1018,7 20 0 0,0
18.02.2020 01:00:00 5,9 1,8 - - 22 12 - - W 1018,4 26 0 0,0
18.02.2020 00:00:00 6,0 2,1 - - 29 16 46 25 W 1017,5 24 - -
17.02.2020 23:00:00 6,4 2,2 - - 26 14 46 25 W 1016,7 40 0 0,0
17.02.2020 22:00:00 7,1 2,8 - - 24 13 - - W 1015,8 40 0 0,0
17.02.2020 21:00:00 7,7 3,5 - - 22 12 - - W 1014,9 26 0 0,0
17.02.2020 20:00:00 8,1 3,7 - - 24 13 - - WSW 1013,8 28 0 0,0
17.02.2020 19:00:00 8,2 4,0 - - 15 8 - - WSW 1013,4 21 0 0,0
17.02.2020 18:00:00 8,8 4,3 - - 24 13 - - WSW 1012,0 22 0 0,0
17.02.2020 17:00:00 9,6 4,6 - - 24 13 - - WSW 1010,6 23 30 0,0
17.02.2020 16:00:00 10,1 5,0 - - 22 12 50 27 WSW 1009,9 35 48 0,0
17.02.2020 15:00:00 10,0 4,3 - - 22 12 - - W 1009,1 22 12 0,0
17.02.2020 14:00:00 9,9 4,4 - - 28 15 52 28 WSW 1008,7 23 12 0,0
17.02.2020 13:00:00 10,4 4,0 - - 35 19 54 29 WSW 1008,4 21 30 0,0
17.02.2020 12:00:00 10,2 4,0 - - 29 16 59 32 WSW 1008,2 24 42 0,0
17.02.2020 11:00:00 9,1 3,3 - - 31 17 54 29 WSW 1008,1 20 60 0,0
17.02.2020 10:00:00 7,3 3,5 - - 29 16 48 26 WSW 1008,0 40 30 0,0
17.02.2020 09:00:00 7,0 3,2 7,5 8,0 29 16 - - WSW 1007,2 35 6 0,0
17.02.2020 08:00:00 6,9 4,3 - - 34 18 55 30 WSW 1007,1 13 0 1,2
17.02.2020 07:00:00 7,8 3,7 - - 26 14 54 29 WSW 1006,5 11 0 0,0
17.02.2020 06:00:00 7,7 3,3 - - 28 15 54 29 WSW 1006,5 13 0 0,0
17.02.2020 05:00:00 7,9 3,0 - - 29 16 50 27 WSW 1007,0 12 0 0,0
17.02.2020 04:00:00 7,8 2,3 - - 31 17 50 27 SW 1006,8 10 0 0,0
17.02.2020 03:00:00 7,0 1,5 - - 26 14 50 27 SW 1007,2 12 0 0,0
17.02.2020 02:00:00 7,0 1,1 - - 34 18 52 28 WSW 1007,0 14 0 0,0
17.02.2020 01:00:00 6,6 1,0 - - 28 15 54 29 WSW 1006,4 25 0 0,0
17.02.2020 00:00:00 6,5 1,5 - - 29 16 59 32 WSW 1005,6 22 - 0,0
16.02.2020 23:00:00 6,5 1,8 - - 35 19 76 41 W 1004,1 26 0 0,0
16.02.2020 22:00:00 5,8 2,0 - - 46 25 81 44 WSW 1003,0 12 0 0,0
16.02.2020 21:00:00 8,2 3,9 - - 35 19 57 31 WSW 1001,4 16 0 0,0
16.02.2020 20:00:00 8,2 4,7 - - 35 19 57 31 WSW 1000,4 28 0 0,0
16.02.2020 19:00:00 8,1 5,5 - - 28 15 - - SW 999,3 35 0 0,0
16.02.2020 18:00:00 7,9 5,5 - - 26 14 50 27 WSW 998,3 45 0 0,0
16.02.2020 17:00:00 7,7 5,6 - - 26 14 - - WSW 997,2 50 0 0,2
16.02.2020 16:00:00 7,2 5,7 - - 24 13 46 25 WSW 996,1 40 0 1,6
16.02.2020 15:00:00 7,9 6,2 - - 26 14 - - W 995,2 9 0 2,6
16.02.2020 14:00:00 9,1 8,1 - - 22 12 - - W 994,6 5 0 3,0
16.02.2020 13:00:00 9,6 8,9 - - 22 12 - - SW 993,4 7 0 2,2
16.02.2020 12:00:00 10,2 9,2 - - 29 16 - - SW 993,9 9 0 1,6
16.02.2020 11:00:00 11,7 8,9 - - 29 16 50 27 WSW 994,8 7 0 0,2
16.02.2020 10:00:00 12,6 9,5 - - 31 17 54 29 WSW 994,9 50 0 2,4
16.02.2020 09:00:00 10,9 9,5 8,2 8,0 31 17 72 39 W 994,9 1,4 0 3,0
16.02.2020 08:00:00 13,2 11,4 - - 48 26 85 46 SW 992,9 11 0 0,2
16.02.2020 07:00:00 12,8 11,2 - - 52 28 85 46 SW 992,4 10 0 0,0
16.02.2020 06:00:00 12,5 11,1 - - 55 30 81 44 SW 992,5 8 0 0,2
16.02.2020 05:00:00 12,4 10,9 - - 59 32 83 45 SW 993,1 4,8 0 0,2
16.02.2020 04:00:00 12,8 10,7 - - 55 30 80 43 SW 994,0 12 0 0,0
16.02.2020 03:00:00 13,0 11,1 - - 55 30 98 53 SW 995,5 5 0 0,0
16.02.2020 02:00:00 13,2 10,8 - - 59 32 87 47 SW 995,9 29 0 0,0
16.02.2020 01:00:00 12,4 10,6 - - 55 30 78 42 SW 996,6 10 0 0,0
16.02.2020 00:00:00 12,4 10,8 - - 50 27 72 39 SW 997,7 30 - 0,0
15.02.2020 23:00:00 12,3 10,8 - - 44 24 76 41 SW 998,8 19 0 0,0
15.02.2020 22:00:00 12,1 10,7 - - 46 25 68 37 SW 999,3 22 0 0,0
15.02.2020 21:00:00 12,1 10,6 - - 50 27 76 41 SW 999,7 9 0 0,0
15.02.2020 20:00:00 11,9 10,1 - - 55 30 80 43 SW 999,8 8 0 0,0
15.02.2020 19:00:00 11,4 9,9 - - 55 30 89 48 SW 1000,0 9 0 0,0
15.02.2020 18:00:00 11,1 9,9 - - 59 32 83 45 SSW 1000,6 6 0 0,2
15.02.2020 17:00:00 11,1 9,6 - - 55 30 78 42 SSW 1001,7 6 0 0,0
15.02.2020 16:00:00 10,7 9,5 - - 54 29 74 40 SSW 1003,2 8 0 0,4
15.02.2020 15:00:00 11,4 9,3 - - 46 25 74 40 SW 1004,8 17 0 0,0
15.02.2020 14:00:00 11,3 9,5 - - 42 23 63 34 SW 1005,8 14 0 0,2
15.02.2020 13:00:00 11,6 9,3 - - 46 25 59 32 SSW 1007,2 23 0 0,0
15.02.2020 12:00:00 12,1 9,2 - - 42 23 65 35 SSW 1008,4 19 0 0,0
15.02.2020 11:00:00 12,4 9,3 - - 35 19 54 29 SSW 1009,7 18 0 0,0
15.02.2020 10:00:00 11,6 9,1 - - 35 19 48 26 SSW 1010,7 20 0 0,0
15.02.2020 09:00:00 11,2 9,3 6,7 8,0 35 19 46 25 SSW 1011,3 17 0 0,0
15.02.2020 08:00:00 10,7 9,2 - - 29 16 - - SSW 1011,9 15 0 0,0
15.02.2020 07:00:00 10,1 9,1 - - 28 15 - - SSW 1012,4 12 0 0,0
15.02.2020 06:00:00 10,1 9,1 - - 24 13 - - SSW 1012,8 11 0 0,0
15.02.2020 05:00:00 9,8 9,3 - - 22 12 - - SSW 1013,2 11 0 0,0
15.02.2020 04:00:00 9,4 8,9 - - 21 11 - - SSW 1013,9 5 0 0,0
15.02.2020 03:00:00 9,9 9,0 - - 24 13 - - SSW 1014,5 11 0 0,0
15.02.2020 02:00:00 9,8 8,8 - - 24 13 - - SW 1015,2 9 0 0,0
15.02.2020 01:00:00 10,1 8,2 - - 29 16 - - SW 1015,6 9 0 0,0
15.02.2020 00:00:00 10,3 7,7 - - 24 13 - - SW 1015,8 10 - 0,0
14.02.2020 23:00:00 10,0 7,4 - - 28 15 - - SSW 1016,2 10 0 0,0
14.02.2020 22:00:00 10,1 7,4 - - 26 14 - - SSW 1016,7 10 0 0,0
14.02.2020 21:00:00 9,8 7,4 - - 26 14 - - SSW 1017,4 9 0 0,0
14.02.2020 20:00:00 9,5 7,0 - - 21 11 - - SSW 1017,7 10 0 0,0
14.02.2020 19:00:00 9,2 7,1 - - 18 10 - - SW 1018,2 9 0 0,0
14.02.2020 18:00:00 9,4 7,0 - - 22 12 - - SW 1017,8 10 0 0,0
14.02.2020 17:00:00 9,8 5,9 - - 24 13 - - SW 1017,6 10 0 0,0
14.02.2020 16:00:00 9,9 5,6 - - 24 13 - - WSW 1017,7 10 6 0,0
14.02.2020 15:00:00 10,6 6,1 - - 28 15 - - SW 1017,5 13 36 0,0
14.02.2020 14:00:00 10,9 6,7 - - 28 15 - - SW 1017,3 18 42 0,0
14.02.2020 13:00:00 10,2 6,2 - - 21 11 - - SW 1017,7 27 42 0,0
14.02.2020 12:00:00 10,0 6,4 - - 26 14 - - SW 1018,3 23 54 0,0
14.02.2020 11:00:00 8,5 4,5 - - 22 12 - - SSW 1019,0 35 60 0,0
14.02.2020 10:00:00 6,8 4,9 - - 16 9 - - SSW 1019,1 30 60 0,0
14.02.2020 09:00:00 5,0 4,2 5,9 8,0 11 6 - - SW 1019,0 26 42 0,0
14.02.2020 08:00:00 2,7 2,3 - - 8 4 - - SW 1018,5 6 6 0,0
14.02.2020 07:00:00 3,7 3,1 - - 9 5 - - WSW 1017,9 9 0 0,0
14.02.2020 06:00:00 2,0 0,9 - - 5 3 - - W 1017,3 8 0 0,0
14.02.2020 05:00:00 3,7 2,5 - - 8 4 - - W 1016,7 14 0 0,0
14.02.2020 04:00:00 3,8 2,8 - - 8 4 - - WNW 1015,7 14 0 0,0
14.02.2020 03:00:00 4,5 2,9 - - 9 5 - - W 1014,6 19 0 0,0
14.02.2020 02:00:00 5,1 2,8 - - 8 4 - - W 1013,9 35 0 0,0
14.02.2020 01:00:00 6,1 3,4 - - 11 6 - - NNW 1012,6 50 0 0,0
14.02.2020 00:00:00 7,2 4,0 - - 16 9 - - NW 1011,3 35 - 0,0
13.02.2020 23:00:00 7,6 4,2 - - 21 11 - - NW 1009,9 45 0 0,0
13.02.2020 22:00:00 7,8 4,2 - - 22 12 - - WNW 1007,8 50 0 0,0
13.02.2020 21:00:00 7,6 4,2 - - 16 9 - - WNW 1006,1 45 0 0,0
13.02.2020 20:00:00 6,9 4,0 - - 21 11 - - WNW 1003,6 35 0 0,0
13.02.2020 19:00:00 7,9 4,3 - - 29 16 - - NW 1002,1 50 0 0,0
13.02.2020 18:00:00 7,9 4,8 - - 16 9 - - WNW 999,1 45 0 0,0
13.02.2020 17:00:00 8,1 5,4 - - 16 9 - - WNW 996,8 40 12 0,0
13.02.2020 16:00:00 9,1 5,3 - - 18 10 - - WNW 994,5 30 12 0,2
13.02.2020 15:00:00 8,5 6,6 - - 15 8 - - WNW 992,3 30 24 0,0
13.02.2020 14:00:00 7,0 6,1 - - 11 6 - - WSW 991,4 10 0 2,2
13.02.2020 13:00:00 7,7 6,1 - - 24 13 - - SW 991,1 13 0 0,8
13.02.2020 12:00:00 9,0 5,4 - - 28 15 55 30 SW 991,6 18 0 0,0
13.02.2020 11:00:00 8,7 5,5 - - 28 15 - - SW 992,1 14 30 0,0

tt = temperature
td = dewpoint
tt -20cm = temperature -20cm
tt -100cm = temperature -100cm
ff = wind speed
fx = gusts
dd = wind direction
ppp = reduced air pressure
vv = visibility
sd = sunshine duration
rr = precipitation

Next stations